GFSFLT1_con_mucape_060.txt.gz
CAPE
80 54 11 7 126 259 327 391 158 12 0 57 142 292 401 331 256 225 109 145 90 68 58 30 0 0 0 0 0 0 0 0
116 63 137 35 100 289 387 431 165 25 46 115 234 341 332 345 301 96 28 45 43 4 0 0 0 0 0 0 0 0 0 0
245 217 219 134 166 380 388 336 297 107 133 194 247 335 379 336 203 77 34 48 28 0 0 0 0 0 0 0 0 0 0 0
390 306 180 236 268 401 381 334 265 162 188 258 319 310 226 155 65 76 65 68 1 0 0 0 0 0 0 0 0 0 0 0
369 321 174 277 282 282 327 317 206 97 185 284 303 258 163 63 51 43 58 8 0 0 0 0 0 0 0 0 0 0 0 0
300 251 191 123 310 226 225 286 152 117 204 242 277 287 202 56 35 47 33 0 0 0 0 0 0 0 0 4 0 0 0 0
497 55 75 62 201 122 115 190 165 115 188 231 303 281 60 59 66 33 2 0 0 0 0 0 1 1 3 1 0 0 0 0
531 44 36 47 43 76 50 55 73 139 156 247 326 177 114 80 12 0 1 0 0 0 0 2 5 11 5 0 5 0 0 0
247 63 39 66 64 154 39 46 42 148 98 211 293 256 210 65 0 5 6 7 0 0 6 0 5 25 10 6 0 0 1 0
96 121 83 103 210 179 61 124 113 196 242 286 309 360 176 122 1 4 13 5 2 10 4 7 0 0 14 6 3 0 0 0
57 73 153 148 179 146 141 220 266 387 397 436 456 351 238 457 154 13 29 30 24 54 22 14 17 6 1 2 0 0 0 0
71 133 237 303 325 351 347 391 543 594 583 450 369 322 338 400 233 58 27 14 39 25 17 3 0 1 0 0 0 0 0 0
224 370 365 353 442 510 589 645 746 649 574 447 278 375 345 202 107 42 22 39 4 1 18 3 22 0 0 0 0 0 0 0
428 434 473 488 500 597 695 813 718 595 510 333 333 280 82 29 45 46 57 55 3 5 0 1 8 1 0 0 0 0 0 0
586 636 636 633 644 638 742 674 433 399 380 318 223 59 46 29 32 62 50 28 7 3 4 9 10 0 0 0 0 0 0 0
395 607 752 827 800 784 611 452 395 376 206 290 95 77 26 0 37 14 2 2 19 6 15 0 0 0 0 0 0 0 0 0
20 213 395 448 421 429 390 312 206 125 59 64 49 69 49 63 32 44 0 2 2 11 0 0 0 0 0 0 0 0 0 0
0 12 56 133 183 173 99 41 48 57 46 71 85 71 54 60 20 26 27 13 0 0 0 0 0 0 0 0 0 0 0 0
0 0 0 0 2 1 0 0 20 57 67 85 55 41 35 68 27 2 18 0 0 0 0 0 0 0 0 0 0 0 0 0

GFSFLT1_con_mucape_063.txt.gz
CAPE
77 74 45 112 160 188 311 359 323 320 29 2 57 73 196 354 333 284 190 97 78 62 62 52 38 22 0 0 0 0 0 0
149 121 86 61 156 186 256 283 364 365 18 0 0 75 230 350 288 197 139 82 38 62 43 9 0 0 0 0 0 0 0 0
197 187 213 86 86 184 261 348 419 159 51 18 21 116 217 278 216 161 80 26 33 33 2 0 0 0 0 0 0 0 0 0
301 183 224 173 100 162 187 396 481 378 105 36 76 151 232 280 216 130 56 18 4 17 0 0 0 0 0 0 0 0 0 0
463 296 249 250 168 151 164 331 467 511 352 182 148 161 221 293 193 53 40 7 12 20 0 0 0 0 0 0 0 1 2 0
564 453 385 283 206 161 184 373 384 332 287 290 167 222 252 187 104 37 11 8 34 0 0 0 0 0 0 0 2 0 1 1
458 509 304 238 227 174 204 317 304 367 284 234 158 228 187 186 127 34 7 54 28 0 0 0 0 0 3 4 6 1 7 3
411 430 561 260 199 129 193 303 278 270 375 269 148 207 260 207 143 61 51 79 13 12 1 2 1 5 6 20 0 0 8 1
332 352 405 577 130 98 96 141 223 109 238 99 95 178 170 143 166 151 109 39 9 5 4 7 10 23 12 11 0 0 6 0
28 283 310 390 536 95 178 171 125 64 89 82 76 85 118 172 224 99 16 1 3 4 7 14 16 1 1 10 0 0 0 0
9 15 67 199 324 186 176 208 202 138 80 203 278 309 240 367 302 120 2 0 10 17 27 10 17 2 8 9 6 0 0 0
37 78 127 154 236 253 287 305 304 213 193 322 312 329 275 315 247 116 68 17 29 4 0 3 0 8 10 1 0 1 0 0
89 200 290 375 392 414 436 374 315 301 348 543 479 395 358 401 170 172 108 61 57 19 3 14 0 5 4 6 0 0 0 0
151 209 306 416 473 481 363 412 471 549 563 480 341 253 152 119 95 119 87 41 19 39 33 0 0 0 4 0 0 0 0 0
187 329 315 320 360 364 435 575 690 619 539 333 203 159 100 92 109 56 57 0 25 6 0 1 2 2 0 0 0 0 0 0
0 226 494 588 622 631 600 592 548 398 250 161 74 59 50 70 37 42 1 8 10 10 1 2 0 0 0 0 0 0 0 0
0 10 191 461 575 532 444 472 350 261 191 85 39 16 2 19 15 2 1 3 1 0 0 0 0 0 0 0 0 0 0 0
2 29 67 152 182 183 162 107 77 52 35 1 4 5 9 28 23 0 1 10 11 0 0 0 0 0 0 0 0 0 0 0
0 0 0 0 0 0 0 0 0 0 1 4 7 13 13 7 10 3 1 0 0 0 0 0 0 0 0 0 0 0 0 0

GFSFLT1_con_mucape_069.txt.gz
CAPE
227 163 70 7 15 4 50 201 287 457 589 284 100 107 100 141 379 535 710 722 452 274 183 31 8 3 0 0 0 0 0 0
253 183 107 18 16 0 66 265 376 487 424 280 89 39 75 191 515 600 686 604 455 384 132 0 13 0 0 0 0 0 0 0
272 299 164 88 90 213 249 274 459 513 396 219 49 40 54 173 728 704 698 540 383 253 78 0 6 0 2 0 0 0 0 0
323 282 438 204 242 321 319 370 367 533 468 286 102 84 103 232 666 597 542 468 394 258 57 7 1 13 0 0 0 0 0 0
462 264 341 540 547 545 588 543 514 705 693 401 208 123 150 325 538 484 508 341 224 29 68 34 3 9 3 0 0 0 0 0
538 599 344 379 561 642 739 654 756 752 985 683 434 312 333 472 723 676 593 174 56 66 50 12 3 14 6 1 0 0 0 5
485 488 600 534 1188 1064 700 723 857 882 990 1036 885 678 623 529 932 689 520 117 14 53 11 5 42 21 37 13 0 0 5 13
761 483 474 591 779 952 993 843 769 935 1129 1248 1283 1247 1063 1180 904 589 395 42 19 48 48 53 70 37 46 9 2 1 13 6
866 927 798 656 707 1042 1260 1112 993 845 1105 1527 1558 1440 1307 1522 1151 766 344 36 31 46 81 74 78 38 45 15 0 2 3 1
409 895 1095 1187 1049 1270 1939 1401 1230 1122 1368 1740 1513 1694 1400 1166 1026 567 215 44 59 64 70 73 9 27 13 27 9 1 0 0
412 506 903 1241 1413 1451 1709 1477 1223 1213 1344 1469 1367 1387 1043 725 289 291 93 113 57 112 84 39 3 12 25 51 2 0 0 0
282 334 581 1017 1340 1489 1587 1545 1414 1205 1272 1590 1416 1148 776 676 356 289 152 85 83 89 14 0 32 27 24 1 0 0 0 0
453 451 358 442 754 1083 1296 1476 1494 1311 1143 1281 1267 875 803 487 527 202 77 78 56 39 108 74 28 0 0 1 0 0 0 0
358 630 741 709 741 849 975 1075 1097 1063 1020 1092 808 662 616 372 496 314 92 8 11 21 38 11 1 0 0 0 2 0 0 0
264 609 849 1107 1107 1037 1035 1111 1028 861 850 778 629 647 429 379 449 291 55 41 38 38 5 6 0 0 1 0 2 1 0 0
143 573 931 1176 1454 1321 869 837 634 544 546 625 746 476 417 249 177 125 56 68 41 4 8 6 1 0 3 7 0 0 0 0
36 344 1131 1282 1183 967 573 339 404 471 582 476 286 245 168 120 96 98 98 41 0 1 2 0 0 3 3 0 0 0 0 0
175 551 980 790 508 205 256 409 435 393 216 206 134 117 114 125 109 44 0 1 3 2 5 2 0 0 0 0 0 0 0 0
191 267 185 138 69 288 301 208 167 114 80 54 27 10 0 0 0 0 1 5 1 0 0 0 0 0 0 0 0 0 0 0

GFSFLT1_con_mucape_072.txt.gz
CAPE
115 29 5 0 0 0 0 0 0 0 0 73 111 126 63 69 286 351 432 489 431 332 93 27 19 0 0 5 0 0 0 0
87 67 48 0 0 0 0 0 0 15 69 44 66 72 31 59 138 337 433 482 459 290 271 125 20 0 7 8 4 0 0 0
140 44 8 0 0 0 0 0 117 229 218 130 22 0 0 0 134 418 494 531 480 359 344 53 24 0 0 0 4 0 2 0
185 101 20 0 0 0 0 111 324 325 291 193 56 10 19 10 493 531 494 521 504 308 241 55 21 6 0 2 3 2 3 0
230 208 117 10 0 4 118 202 380 391 345 149 53 23 18 52 463 556 498 444 439 316 226 127 21 51 32 5 10 23 5 0
277 257 256 125 147 222 307 309 311 227 365 422 176 84 30 44 189 476 408 322 573 361 179 60 43 21 5 7 6 16 15 0
398 272 249 415 328 448 656 582 449 461 570 361 594 207 296 324 656 506 421 274 211 257 57 35 44 3 4 22 4 33 8 0
522 520 347 271 456 618 814 786 585 612 916 654 691 849 359 467 655 507 453 295 240 50 7 17 47 35 38 34 38 2 40 14
503 372 666 486 490 787 793 775 746 751 926 1089 1057 929 984 668 810 626 411 325 271 168 21 13 50 66 91 33 6 0 4 17
580 692 453 646 686 881 1004 889 780 733 1020 1117 1275 1291 1259 1126 1040 864 543 464 381 246 10 53 81 96 68 27 0 0 0 17
388 482 936 594 703 928 1154 1086 1104 983 957 1141 1306 1429 1415 1319 1070 816 620 457 224 60 72 71 99 91 9 1 0 3 14 17
293 447 618 1121 973 736 1288 1466 1375 1267 1165 1218 1355 1419 1185 1153 1071 638 494 174 107 115 118 171 54 10 25 16 0 0 0 0
329 337 381 543 1333 1481 1377 1513 1517 1407 1192 1360 1350 1161 984 917 839 563 247 178 136 255 172 56 16 13 18 2 0 0 1 0
200 488 457 457 626 865 1383 1666 1593 1521 1247 1168 934 1071 845 605 641 591 278 290 162 29 26 10 15 19 5 5 1 0 0 0
113 349 560 686 787 883 1061 1143 1140 1136 1019 1024 1023 1073 649 672 459 475 330 269 221 54 44 44 35 24 10 9 0 9 12 5
2 104 677 934 1095 981 929 958 978 958 892 812 701 636 480 310 303 308 253 288 80 88 28 53 19 11 3 0 0 9 4 0
37 7 921 1214 1288 1228 1068 949 932 850 792 677 714 502 295 198 168 105 64 58 71 56 26 11 0 0 1 0 0 0 0 0
113 210 1255 1020 995 1082 990 651 607 687 480 379 328 252 151 63 53 75 58 67 47 0 2 3 4 0 0 0 0 0 0 0
195 777 801 614 619 507 295 206 113 246 263 311 118 68 43 28 12 2 0 0 0 0 3 2 0 0 0 0 0 0 0 0

GFSFLT1_con_mucape_075.txt.gz
CAPE
1 0 0 0 0 3 5 0 0 0 0 0 0 0 21 0 12 1 18 26 128 223 149 81 2 0 8 3 6 7 0 0
0 0 0 0 0 0 0 0 0 0 0 0 0 7 0 0 0 0 55 226 224 214 156 69 31 10 13 0 7 5 0 0
30 0 0 0 0 0 0 0 0 0 0 0 0 0 0 0 0 98 137 222 342 267 192 113 73 25 5 0 0 0 0 0
74 8 0 0 0 0 0 0 0 0 0 0 0 0 0 0 3 110 163 220 372 364 239 169 164 57 21 0 1 0 0 0
65 51 0 0 0 0 0 0 0 0 0 0 0 0 0 0 0 28 192 268 338 318 303 239 158 75 3 0 3 26 19 7
69 95 5 0 0 0 0 0 11 13 28 29 20 14 0 0 66 163 207 260 349 415 345 210 162 68 4 12 34 8 11 4
82 140 87 2 0 0 0 22 31 44 63 61 113 28 3 0 76 261 285 294 380 406 254 255 191 91 33 27 8 28 8 4
158 141 104 106 7 4 4 15 50 90 164 129 158 81 30 24 9 294 340 381 296 260 198 178 220 127 62 68 40 27 38 12
284 208 199 157 94 67 32 37 122 131 236 242 193 220 145 32 57 176 302 389 369 194 213 199 66 25 45 72 51 49 16 0
331 306 329 294 280 167 159 316 219 255 347 492 396 301 380 327 48 293 377 380 406 372 236 172 94 38 49 158 70 69 18 1
440 387 344 343 326 339 285 337 544 470 359 597 722 644 439 715 590 354 463 435 372 333 304 262 85 106 178 15 64 10 8 2
99 157 352 439 389 439 383 394 396 513 514 437 766 808 781 664 875 783 786 408 366 359 198 58 69 120 97 9 20 7 17 5
60 94 179 436 473 558 487 518 554 706 629 516 709 825 944 691 613 496 569 339 377 316 155 112 99 72 20 0 0 13 12 5
38 66 86 113 490 597 676 767 724 564 526 758 844 720 717 550 483 503 455 361 226 122 127 72 31 21 19 12 5 20 2 4
86 94 104 120 511 833 967 1013 843 817 890 938 970 794 714 634 532 498 304 211 178 93 53 58 36 14 16 28 20 10 0 0
0 73 151 426 435 616 1155 1267 1135 1077 1076 981 838 814 779 520 516 282 192 155 116 64 91 21 5 15 22 20 8 0 0 0
13 50 371 469 518 534 597 722 836 882 871 780 779 786 669 538 388 200 74 78 95 61 17 7 15 13 2 0 0 0 0 0
80 742 658 565 618 624 651 663 737 797 774 606 406 245 182 160 62 56 53 65 40 35 10 8 3 0 0 0 0 0 0 0
514 710 880 886 876 868 818 766 734 526 463 356 541 300 172 61 49 31 13 9 3 0 0 0 0 0 0 0 0 0 0 0

GFSFLT1_con_mucape_078.txt.gz
CAPE
1 0 3 7 13 12 1 4 21 15 17 37 6 9 11 7 10 72 87 97 109 143 140 59 8 6 0 0 0 0 0 0
0 0 0 0 0 5 3 2 3 3 9 2 12 9 1 0 0 2 12 0 64 79 89 38 32 15 0 0 0 0 0 0
0 0 0 6 0 0 0 4 9 7 7 0 0 0 0 0 0 0 0 7 29 67 27 33 38 41 4 0 0 0 0 1
0 0 0 0 0 0 0 0 0 0 0 0 0 0 0 0 0 0 0 1 42 44 35 57 74 48 35 16 0 0 8 14
38 0 0 0 0 0 0 0 0 0 0 0 0 0 0 0 0 0 0 0 18 76 73 108 123 98 64 46 28 15 12 14
41 0 0 0 0 0 0 0 0 0 0 0 0 0 0 0 0 0 3 37 53 79 113 164 128 134 154 119 55 31 25 28
72 2 11 0 0 0 0 0 0 0 0 0 0 0 0 0 1 0 0 42 88 109 123 153 230 167 150 106 70 22 27 24
153 16 105 5 0 0 0 0 0 0 0 0 0 0 0 1 2 0 4 22 55 119 185 274 287 244 183 129 70 29 54 55
222 198 66 122 50 2 0 0 0 0 25 25 14 5 3 18 30 16 15 56 88 110 193 251 339 226 177 224 119 71 83 35
231 280 300 191 78 28 13 0 0 18 34 73 130 108 60 140 163 67 50 101 105 143 243 246 223 186 209 258 91 42 55 66
241 270 380 398 254 131 73 28 15 5 46 91 134 172 198 154 218 156 74 103 181 230 242 168 156 167 134 34 51 55 87 45
197 248 320 435 433 298 219 133 140 106 88 92 194 224 261 310 197 159 139 116 200 225 98 293 193 129 66 44 20 13 1 6
111 167 204 256 337 363 362 261 202 210 162 189 228 268 311 364 363 196 201 164 33 0 15 195 137 83 52 47 24 0 5 2
0 29 73 116 200 283 363 378 384 339 428 462 463 430 468 582 471 393 218 150 31 29 192 184 119 46 61 32 17 0 0 3
9 9 65 117 185 315 402 420 469 484 421 479 503 600 527 567 443 414 395 254 157 160 136 127 104 55 39 36 0 0 0 17
13 9 27 127 212 317 436 466 511 508 618 553 508 486 699 760 660 608 258 237 175 380 94 79 33 37 4 0 38 7 12 9
0 0 108 256 239 325 345 505 564 626 830 782 736 834 857 680 482 354 233 257 159 126 48 31 38 46 29 2 12 13 10 0
4 6 76 261 445 480 521 616 788 949 888 687 637 434 235 259 299 196 204 126 81 62 54 50 36 11 16 13 11 0 0 0
148 167 104 162 179 290 479 633 665 572 528 483 424 379 176 372 186 106 54 47 49 42 5 8 6 5 2 1 2 4 0 0

GFSFLT1_con_mucape_084.txt.gz
CAPE
4 1 2 3 16 27 11 14 5 4 20 6 10 16 27 47 37 62 93 62 13 0 2 1 3 5 1 7 15 17 11 2
2 2 0 5 4 18 16 13 15 0 13 18 24 13 5 2 12 34 95 71 8 1 0 0 0 0 0 0 0 12 25 17
0 2 0 0 0 1 0 3 8 1 23 6 30 16 2 61 65 27 58 51 38 7 0 0 0 0 0 8 10 25 22 7
0 2 0 0 0 1 3 7 3 3 4 12 17 3 4 96 36 52 73 68 68 73 84 94 107 82 58 50 44 30 35 21
0 0 0 0 0 0 1 1 0 0 1 4 10 11 13 9 8 0 68 66 95 88 81 103 125 99 85 74 71 62 62 51
15 0 0 0 0 0 4 2 0 0 0 0 0 1 1 3 2 32 9 1 1 7 3 0 4 34 60 55 73 108 124 90
40 7 0 0 1 0 0 0 0 0 0 0 0 0 0 0 0 0 0 0 0 0 0 0 18 27 24 50 102 92 99 81
14 40 0 0 0 0 0 0 0 0 0 0 0 0 0 0 0 0 0 0 0 0 0 0 8 22 55 93 112 105 108 119
2 21 14 4 4 0 0 0 0 0 0 0 0 0 0 0 0 0 0 0 0 0 0 5 14 41 84 150 127 96 107 117
0 19 47 59 38 9 4 0 0 0 0 0 0 0 0 0 0 0 0 0 0 0 0 0 11 43 65 88 100 78 35 26
7 19 61 97 129 149 78 1 0 0 0 0 0 0 0 0 0 0 0 0 0 0 0 1 15 22 41 50 76 94 51 20
0 10 33 62 97 179 186 128 27 0 0 0 0 0 0 0 0 0 0 1 12 29 43 53 71 87 38 43 78 65 9 19
0 5 27 38 66 86 160 187 183 124 41 11 0 3 9 0 0 9 25 47 60 73 96 111 140 43 29 8 49 28 33 1
6 14 27 20 41 64 72 72 80 137 193 161 17 2 1 2 9 14 10 30 47 41 63 145 103 35 45 9 21 10 15 37
4 0 25 27 45 53 48 40 35 54 92 156 177 91 85 101 146 192 127 109 131 139 159 160 161 142 156 55 38 41 49 89
2 13 4 17 36 49 47 38 36 35 37 110 164 183 192 225 281 282 237 231 241 358 370 493 524 249 146 77 50 45 121 98
8 1 7 10 19 39 36 46 51 56 51 38 95 155 190 227 252 240 238 344 377 214 402 190 139 133 245 51 169 131 114 46
9 0 0 1 5 16 27 33 31 55 73 68 70 101 161 198 216 237 347 231 204 180 133 189 40 46 90 190 97 68 52 58
2 4 0 6 20 24 38 29 25 46 69 96 130 174 189 198 149 246 210 35 21 18 76 141 94 118 98 96 79 68 62 40

GFSFLT1_con_mucape_087.txt.gz
CAPE
2 7 1 4 9 4 1 22 10 12 7 2 1 22 33 20 18 78 98 77 47 28 13 16 15 38 34 35 40 33 48 54
10 10 1 0 2 3 3 1 20 10 11 9 17 12 2 7 6 45 91 50 43 56 8 0 11 18 23 29 35 41 40 38
0 0 1 0 0 0 1 3 9 12 10 3 5 2 6 2 36 27 36 33 31 51 32 9 0 4 2 1 13 24 19 15
0 0 1 0 0 0 0 0 2 1 5 3 7 9 4 0 1 0 38 31 28 12 23 33 48 27 6 9 3 5 21 10
0 0 0 0 0 0 0 1 0 2 3 1 6 0 4 13 1 0 2 20 41 27 38 64 74 61 53 19 21 58 63 29
0 0 1 2 0 0 0 0 0 0 0 0 2 3 8 13 5 1 0 55 70 70 102 117 94 80 54 88 82 100 94 71
13 0 0 2 1 0 0 0 0 0 0 0 2 0 0 3 31 0 3 1 34 33 70 84 74 74 76 78 87 78 62 42
32 16 0 0 2 0 0 0 0 0 0 0 0 0 0 0 2 3 0 0 0 5 20 33 36 61 56 87 91 49 25 45
11 25 25 0 0 0 0 0 0 0 0 0 0 0 0 0 0 0 0 0 0 0 0 4 13 25 48 74 149 130 28 73
0 24 45 21 3 2 0 0 0 0 0 0 0 0 0 0 0 0 0 0 0 0 0 0 5 10 50 83 172 109 48 59
4 19 38 66 60 52 28 5 0 0 0 0 0 0 0 0 0 0 0 0 0 0 0 0 0 6 83 101 64 45 50 56
8 16 32 46 69 93 119 85 15 0 0 0 0 0 0 0 0 0 0 0 0 0 0 0 0 0 0 23 12 60 86 39
0 16 18 39 55 74 91 126 158 81 15 0 0 0 0 0 0 0 0 0 0 0 1 4 6 9 22 42 58 2 0 47
0 0 13 33 34 47 59 75 107 147 141 89 24 6 6 9 13 8 6 0 0 1 2 16 43 41 71 13 37 20 22 71
0 0 1 35 34 37 50 61 67 79 87 91 124 119 70 13 2 2 8 18 25 21 32 46 56 66 204 147 233 207 162 83
0 3 9 5 45 48 50 50 45 36 30 29 84 126 138 133 113 96 102 109 132 126 97 109 130 210 142 192 170 111 98 128
26 10 11 6 10 53 48 53 49 36 34 29 35 81 130 148 161 179 171 163 189 181 201 321 325 170 290 40 32 132 83 101
3 28 27 12 3 13 19 38 48 31 32 40 53 52 50 111 163 167 172 193 174 373 212 120 102 7 65 51 0 4 19 60
1 11 24 17 3 2 14 14 24 32 34 45 57 73 97 127 170 191 189 160 132 124 42 72 18 42 70 76 58 105 101 84

GFSFLT1_con_mucape_090.txt.gz
CAPE
0 3 16 17 5 8 13 0 3 0 14 6 20 25 8 2 11 2 97 70 44 11 11 8 6 7 17 23 13 17 20 12
0 2 9 0 0 0 1 0 10 0 8 18 16 7 16 25 2 59 80 68 70 99 41 36 6 36 30 35 31 39 52 55
0 2 16 9 0 0 0 0 0 1 3 15 21 28 11 8 1 77 112 114 90 147 102 69 85 43 30 10 18 46 49 50
0 0 6 1 0 0 0 0 0 0 0 2 1 9 5 15 7 0 94 111 115 95 95 89 90 82 75 72 86 134 131 38
7 0 0 12 22 0 0 0 0 1 4 2 0 3 3 1 1 0 24 102 99 85 87 83 101 98 92 134 145 181 166 171
62 3 0 2 7 25 25 0 0 1 0 0 0 0 14 5 0 5 4 32 32 38 67 83 93 117 126 172 161 179 157 191
91 19 0 0 3 6 27 24 0 0 0 0 1 3 7 0 5 3 0 0 1 27 49 99 121 124 127 186 227 216 208 198
167 33 1 0 3 7 13 13 0 0 0 0 0 3 6 26 36 8 7 30 40 58 86 105 138 211 293 349 316 319 364 344
273 95 55 0 0 5 5 4 0 0 18 0 28 20 0 22 46 59 36 56 94 80 110 122 160 202 267 229 234 244 255 305
331 236 101 52 0 0 7 8 9 3 0 16 6 22 21 16 15 37 52 25 46 103 62 64 50 47 50 69 107 169 284 405
279 383 209 146 33 0 0 0 0 4 15 13 13 14 16 17 15 10 11 11 1 10 16 25 17 9 27 86 188 209 239 322
287 312 330 216 117 21 8 1 0 0 1 5 9 9 10 10 12 14 4 3 1 0 0 11 21 14 75 148 197 168 92 31
326 311 317 319 227 74 37 21 26 8 0 1 2 4 6 7 4 6 11 6 7 3 3 1 2 17 59 133 43 0 2 4
260 342 360 379 321 247 131 40 35 65 39 1 0 3 5 16 23 15 8 6 9 10 7 8 4 29 5 38 19 26 51 45
200 306 391 406 375 339 273 184 44 40 62 84 78 20 4 4 5 5 6 5 0 0 1 0 1 2 9 27 30 43 155 137
156 282 379 436 441 401 310 277 143 43 39 61 81 80 69 54 17 0 0 0 1 0 3 20 46 87 131 130 56 163 164 112
3 13 208 371 406 489 347 239 192 68 30 22 22 45 82 104 95 88 83 51 56 83 111 112 105 64 148 153 74 92 79 57
1 6 7 116 345 326 441 292 177 97 52 28 21 25 33 82 111 130 141 139 126 137 152 147 161 113 93 86 82 75 58 30
0 8 16 1 47 208 226 209 145 72 66 39 33 45 59 59 57 97 139 152 149 133 155 216 170 219 139 57 30 36 89 21

GFSFLT1_con_mucape_096.txt.gz
CAPE
438 130 14 0 0 8 0 5 3 0 0 0 0 36 16 34 9 2 13 13 66 94 56 69 78 56 23 2 0 0 0 0
352 116 1 0 2 10 0 0 0 0 0 0 0 0 31 11 16 7 3 14 45 60 49 44 19 35 25 8 0 0 0 0
166 72 0 0 2 2 0 0 0 0 0 0 1 7 1 8 3 9 6 6 2 29 47 51 44 32 4 0 0 0 1 2
184 103 0 0 2 2 12 0 2 0 5 0 10 8 1 2 8 8 12 5 7 4 43 45 38 11 11 25 3 13 5 21
220 124 1 0 2 4 7 0 0 0 10 8 17 7 14 7 3 6 10 9 3 38 50 62 33 47 48 40 38 43 46 34
274 103 38 0 3 12 9 2 0 0 5 0 0 0 27 25 12 11 11 16 7 6 8 67 74 76 58 92 74 69 79 173
266 140 25 0 0 6 11 6 5 0 0 0 0 0 0 1 6 15 7 8 3 0 0 85 95 48 54 71 64 87 149 208
241 117 8 19 0 1 5 10 3 0 0 0 0 0 0 2 0 0 2 6 3 0 0 0 0 36 43 42 61 89 165 137
259 151 7 36 2 1 41 12 3 1 0 0 0 0 0 1 0 7 2 1 3 8 0 0 42 31 44 74 117 132 160 176
305 272 42 8 2 0 1 7 9 4 0 0 0 0 0 0 2 2 14 10 2 3 1 3 4 0 51 88 109 122 168 127
332 315 219 33 22 0 0 0 2 1 5 0 0 0 0 3 5 4 0 0 2 7 4 11 4 18 53 81 66 116 99 68
400 369 420 114 43 9 6 0 0 0 2 7 9 0 0 2 2 2 2 0 0 0 0 2 2 4 5 42 48 77 86 92
379 414 605 407 106 14 13 0 0 0 2 2 7 7 0 2 2 1 2 7 0 0 0 25 13 14 44 51 65 75 85 75
446 433 615 670 400 173 32 5 0 0 0 1 2 5 4 10 19 8 10 2 16 9 1 21 30 29 35 45 38 40 50 63
338 472 502 706 688 428 208 41 8 0 0 0 0 5 4 0 3 5 13 17 25 20 17 21 30 41 35 30 39 36 63 85
12 186 381 579 725 712 432 286 86 19 0 0 30 15 36 28 12 13 20 20 4 9 14 10 25 33 33 45 70 93 87 70
0 6 154 427 558 782 624 397 276 137 23 9 18 38 40 44 49 45 47 50 56 61 56 61 124 34 37 32 32 33 47 51
0 3 56 287 592 751 766 655 468 361 198 42 41 70 61 33 34 48 49 48 60 72 53 35 30 62 15 7 3 25 45 70
20 31 8 11 62 610 727 785 740 545 423 195 90 70 63 52 30 29 28 39 35 39 57 28 31 36 55 56 60 53 72 137

GFSFLT1_con_mucape_099.txt.gz
CAPE
166 123 69 33 0 0 0 0 0 2 1 0 0 13 1 28 55 57 55 44 34 5 0 0 0 0 0 0 0 0 0 0
209 154 91 59 0 0 0 0 1 0 0 0 0 0 9 7 3 34 28 46 56 43 0 0 0 0 0 1 0 0 0 0
212 185 113 43 0 0 0 0 0 0 0 0 0 0 12 14 5 28 25 41 54 57 20 26 5 10 10 26 0 0 0 0
206 151 98 0 0 0 0 0 0 0 0 3 2 6 0 37 12 12 3 3 21 36 31 15 13 50 45 35 1 4 2 0
190 122 91 0 0 0 2 0 0 0 0 0 0 0 0 7 5 20 6 4 5 4 29 51 39 49 61 59 22 8 0 4
197 148 93 0 0 2 2 0 0 1 0 0 0 0 0 3 3 6 7 4 7 5 1 1 26 44 76 30 4 26 8 7
220 191 75 0 0 1 1 1 5 4 3 0 0 0 0 2 7 10 10 12 0 7 8 4 0 0 0 63 52 55 40 59
234 208 72 0 0 2 1 3 8 6 5 0 0 0 0 5 20 15 9 5 2 3 20 4 1 2 72 65 47 63 27 26
225 174 89 4 0 0 2 1 2 5 3 10 0 0 0 0 13 2 18 14 4 8 5 0 1 0 59 49 47 31 39 38
202 154 138 14 0 0 0 1 0 5 6 1 0 0 0 0 0 0 23 15 20 20 8 0 0 40 50 51 41 33 30 53
212 189 181 95 0 0 0 0 1 3 4 4 3 1 0 0 0 0 5 0 9 18 14 2 0 1 30 28 10 24 35 29
237 232 231 193 77 5 0 0 0 0 3 5 6 0 0 0 0 2 4 0 0 4 15 12 4 5 4 5 11 10 25 28
320 328 271 262 201 25 0 0 0 0 0 3 3 1 0 0 0 0 3 0 0 0 0 1 2 0 0 0 0 4 25 22
398 367 330 300 261 216 39 0 0 0 0 0 5 7 0 0 0 0 0 0 0 0 0 0 0 0 0 0 0 0 1 12
124 341 359 349 322 305 275 96 9 0 0 0 0 1 0 0 0 0 0 0 0 0 0 0 0 0 0 0 0 6 26 33
0 0 227 482 368 363 369 376 293 11 6 0 0 0 0 1 0 0 0 0 4 4 0 0 1 1 6 18 32 37 65 76
0 0 0 106 536 471 451 441 408 349 106 18 0 0 5 7 9 0 0 1 6 8 9 12 8 2 15 49 74 84 91 94
13 3 0 9 223 527 602 531 476 428 402 159 19 10 4 5 0 0 0 0 15 8 23 37 66 15 16 35 73 107 93 79
1 0 0 0 0 22 555 584 605 529 435 375 201 36 44 18 24 24 7 5 11 28 24 34 23 25 34 46 58 74 92 68

GFSFLT1_con_mucape_102.txt.gz
CAPE
506 446 364 215 61 3 0 0 0 1 26 3 12 14 18 57 15 0 40 11 9 4 0 0 0 0 0 0 0 0 0 0
563 371 270 130 83 7 0 0 0 1 3 3 0 10 2 25 49 3 56 9 43 23 0 0 0 0 0 0 0 0 0 0
396 272 181 114 124 0 0 0 0 1 2 0 0 0 16 14 22 8 55 6 61 54 0 0 0 0 0 0 0 0 0 0
297 240 181 193 123 0 0 0 0 0 3 0 0 0 4 8 11 2 31 27 50 71 0 0 0 0 1 0 0 0 0 0
288 258 215 219 77 0 0 0 0 0 1 1 0 1 0 4 11 24 49 49 50 36 5 1 0 0 17 23 15 0 0 1
221 281 258 187 16 0 0 0 0 0 0 1 6 0 0 0 2 5 29 37 32 45 60 100 79 51 60 62 44 15 0 0
161 314 266 152 25 0 0 0 0 0 0 0 5 8 0 0 2 6 2 6 13 3 7 42 70 72 38 57 72 9 0 0
149 335 228 137 24 0 0 0 0 0 0 1 4 8 0 0 6 2 3 2 6 12 8 26 33 26 6 55 33 18 22 18
184 267 243 150 9 0 0 0 0 2 0 0 0 0 1 0 7 18 4 4 3 13 6 3 9 6 13 41 0 4 40 33
303 310 266 136 0 0 0 0 0 1 2 0 0 0 0 0 0 7 10 23 6 6 7 5 4 7 1 73 1 44 27 35
336 374 270 150 26 0 0 0 0 0 5 0 0 0 0 0 0 4 12 5 3 5 4 20 16 7 11 7 1 45 30 13
364 411 269 180 60 0 0 0 0 2 1 2 0 0 0 0 0 0 4 0 10 20 23 22 17 0 0 4 0 10 17 17
134 310 295 215 178 56 0 0 0 0 0 1 2 1 2 0 0 0 0 0 3 11 14 19 18 8 0 0 5 7 17 6
70 138 255 229 244 197 7 0 0 0 0 4 1 2 1 0 0 0 0 0 0 0 0 0 9 0 0 2 10 10 17 31
11 65 172 118 101 205 207 53 0 0 0 0 4 1 1 2 0 0 0 0 0 0 0 0 0 0 0 0 0 0 0 1
1 2 38 106 85 106 87 178 162 60 0 0 0 0 0 3 0 0 0 0 0 0 0 0 0 0 0 0 0 0 0 0
0 0 0 0 36 71 100 99 109 178 163 51 0 0 0 0 0 0 0 0 0 0 1 1 0 0 0 0 0 0 1 21
0 1 1 12 24 104 312 266 139 175 268 253 242 22 8 22 27 17 12 7 0 1 6 10 8 5 8 7 5 27 42 50
1 0 0 4 1 3 30 280 193 117 181 258 287 329 80 14 13 21 19 12 6 2 0 9 15 12 18 31 29 32 36 46

GFSFLT1_con_mucape_105.txt.gz
CAPE
5 61 121 305 346 275 98 3 0 0 0 4 20 14 15 0 44 48 3 3 5 47 12 25 71 0 0 0 0 0 0 0
143 174 237 303 379 251 42 13 0 0 2 4 11 37 3 16 44 35 10 7 9 36 29 11 2 0 0 0 0 0 0 0
190 241 373 421 333 155 31 18 0 0 0 0 0 0 6 5 13 35 15 8 11 44 52 32 0 0 0 0 0 0 0 0
81 301 461 392 293 137 52 0 0 0 0 0 0 0 0 10 5 14 16 9 35 71 67 14 0 0 0 0 0 0 0 0
9 317 396 357 267 116 77 0 0 0 0 0 0 0 0 0 0 6 15 44 47 57 65 0 0 0 0 0 0 0 0 0
7 70 290 280 233 141 72 0 0 0 0 0 0 0 0 0 8 2 15 56 55 57 38 14 0 0 0 0 0 0 0 0
0 19 129 275 218 182 57 0 0 0 0 0 1 0 0 0 15 1 9 38 24 31 56 22 6 7 23 20 48 42 14 3
0 27 93 239 235 183 5 0 7 0 0 0 0 3 3 2 0 11 21 24 7 9 50 31 0 41 72 107 108 100 100 14
0 26 85 237 263 178 0 0 5 0 0 0 0 1 0 2 0 11 21 16 17 13 5 5 15 35 53 79 100 99 11 20
8 10 57 182 306 176 0 0 0 0 0 0 0 0 1 5 1 20 20 14 10 18 19 14 47 36 49 48 35 24 11 5
30 43 18 164 260 107 0 0 0 0 0 0 0 0 0 0 3 4 20 14 6 21 5 10 13 21 41 45 22 28 36 5
0 75 78 294 195 73 0 0 0 0 0 0 0 0 0 0 0 5 12 0 0 3 5 4 7 43 13 24 29 34 0 0
8 8 187 269 196 84 0 1 0 0 0 0 0 0 0 0 0 0 4 1 4 0 4 0 9 13 22 11 11 16 2 18
18 27 57 213 219 100 3 0 2 0 0 0 0 0 0 0 0 0 0 0 10 1 7 2 13 17 30 20 0 0 2 0
0 12 25 64 119 132 92 21 0 0 0 3 0 0 0 1 0 0 0 0 0 1 9 26 19 15 17 13 0 0 0 3
0 0 4 26 70 82 105 100 70 5 0 0 7 6 2 1 0 0 0 0 0 0 0 0 0 0 3 1 0 0 0 0
0 1 0 0 41 35 80 100 127 123 64 0 0 6 7 6 0 0 0 0 0 0 0 0 0 0 0 0 0 0 0 0
0 0 0 0 0 40 14 10 15 104 140 130 79 8 0 3 2 6 0 0 0 0 0 0 0 0 0 0 0 0 0 0
0 0 0 1 0 0 3 0 25 106 203 175 188 170 98 25 0 0 23 3 8 2 0 0 0 0 0 3 12 17 12 4

GFSFLT1_con_mucape_108.txt.gz
CAPE
0 0 0 10 24 183 468 563 191 4 0 2 16 8 13 7 6 6 20 14 31 16 23 18 49 65 17 0 0 15 0 0
0 0 2 52 117 386 584 341 139 0 1 3 7 18 13 6 0 0 17 12 10 27 26 9 21 34 18 2 0 19 0 0
0 0 8 61 150 427 415 279 99 4 2 0 3 6 8 6 15 10 32 12 6 16 3 12 9 2 26 2 0 8 0 0
0 0 7 77 247 374 335 270 50 6 0 1 3 0 6 8 5 9 43 10 11 7 2 8 9 3 6 0 0 0 0 0
0 0 0 88 202 309 331 215 61 9 2 1 1 0 0 1 95 13 12 40 19 13 18 36 11 34 0 0 0 0 0 0
0 0 0 2 158 288 297 199 87 5 0 0 0 0 0 16 6 12 14 28 21 30 27 51 0 40 0 0 0 0 0 0
0 0 0 0 67 301 278 209 115 3 0 0 0 17 0 0 0 0 1 11 12 27 47 116 75 4 0 0 0 0 0 0
0 0 0 1 5 205 266 202 146 0 0 0 0 0 0 8 0 12 0 5 17 45 56 68 52 0 0 0 0 0 1 0
0 0 0 0 0 121 233 195 145 0 0 1 3 0 0 5 7 14 10 22 40 35 38 42 35 5 3 0 0 0 6 29
0 8 20 0 0 69 172 188 104 4 0 4 1 0 0 0 2 1 11 5 18 36 41 48 11 1 1 65 55 74 116 80
4 0 120 14 2 51 176 198 19 2 2 2 1 0 0 2 1 1 10 16 15 20 0 2 10 5 0 3 33 3 73 63
15 17 213 46 27 124 236 200 3 4 0 0 0 0 0 0 1 1 20 10 23 6 15 4 24 29 9 2 0 2 27 3
43 156 270 219 100 219 322 67 7 4 3 1 0 0 0 0 0 2 4 18 11 56 4 18 8 5 15 3 0 18 1 16
0 35 108 273 309 316 167 9 2 6 4 10 2 0 0 1 0 0 6 1 0 0 0 9 11 1 7 5 6 16 9 11
0 0 2 63 145 219 222 83 11 0 2 4 6 1 1 4 5 0 0 7 5 5 0 0 0 3 4 7 37 39 24 26
0 0 0 20 27 67 38 75 76 44 13 0 2 4 3 3 5 6 6 9 5 6 7 8 4 1 2 40 33 34 30 10
0 0 0 6 18 64 19 32 31 34 77 53 29 0 2 3 1 2 6 2 6 0 1 1 0 10 17 33 13 18 19 11
0 0 0 0 1 17 15 16 38 55 55 54 87 78 42 2 1 1 5 2 0 6 0 0 0 1 1 1 3 4 2 0
0 0 0 0 0 0 0 3 23 58 53 54 54 61 49 47 36 3 2 1 3 0 0 0 0 0 0 2 2 2 3 1

GFSFLT1_con_mucape_111.txt.gz
CAPE
0 0 0 0 17 134 293 425 564 630 544 228 291 37 14 35 6 69 22 31 47 65 91 60 12 20 30 3 12 42 0 0
0 0 0 0 35 95 192 281 569 645 399 166 30 31 8 2 8 11 5 14 48 34 6 24 32 34 23 5 25 35 0 4
0 0 0 2 4 73 63 198 588 583 303 71 19 32 11 6 17 16 6 16 16 27 16 17 23 38 49 10 12 24 0 0
0 0 0 1 4 11 84 288 667 465 245 26 0 18 3 15 40 14 4 6 20 22 22 18 26 46 35 4 4 6 0 0
0 0 0 0 1 73 127 471 554 390 227 50 0 2 15 26 23 24 4 7 73 6 12 30 17 23 30 15 21 3 0 0
0 0 0 0 1 57 115 471 471 358 191 62 1 13 28 17 8 19 10 3 18 12 7 10 19 26 3 6 7 13 0 0
0 0 0 0 3 0 113 441 414 342 186 87 4 3 3 20 6 0 5 15 4 11 13 7 28 4 2 1 6 5 0 0
0 0 0 0 0 2 15 364 413 292 171 47 11 0 1 23 3 0 0 9 3 31 24 9 3 4 6 16 21 0 0 0
0 0 0 0 0 6 5 297 377 266 153 13 10 13 1 30 1 14 2 2 9 6 30 14 54 54 70 18 0 0 0 0
0 0 0 2 0 1 7 221 324 239 167 0 3 2 2 10 3 4 0 11 6 18 3 31 94 73 82 0 0 0 0 0
1 2 18 45 0 82 27 139 280 228 0 0 2 1 0 2 0 5 9 4 1 13 16 45 59 71 34 1 0 0 4 25
0 26 96 60 7 74 41 131 248 213 4 3 2 3 0 5 2 4 8 0 6 3 13 30 17 31 23 0 0 2 0 0
0 1 14 101 14 177 31 191 219 46 4 1 0 5 2 0 1 3 3 13 21 11 1 4 8 7 4 0 0 0 0 0
0 0 6 85 145 144 160 218 117 2 4 8 0 1 0 0 0 4 5 7 7 7 12 7 1 8 0 0 3 2 1 0
0 0 1 162 59 225 162 127 52 0 16 7 0 0 0 4 4 1 9 12 9 8 8 4 3 4 1 8 6 1 0 0
0 1 10 1 16 106 102 89 65 39 0 2 2 0 0 2 2 5 3 2 5 0 8 7 0 1 16 10 15 17 2 6
0 4 0 14 8 4 17 33 40 42 48 39 8 0 2 1 1 6 5 6 2 0 9 4 7 0 0 1 5 18 10 28
0 0 0 0 0 1 2 12 13 21 29 60 63 47 23 2 0 2 2 1 3 3 4 11 8 10 0 3 5 1 22 23
0 0 0 0 0 0 0 0 18 26 27 23 42 34 69 58 28 4 0 3 2 2 2 4 2 1 7 9 12 13 11 6

GFSFLT1_con_mucape_114.txt.gz
CAPE
0 0 0 0 0 15 588 1171 1475 1290 1032 686 724 607 390 175 178 47 166 62 98 82 61 118 187 129 194 111 139 180 150 138
0 0 0 74 74 133 586 978 1374 917 588 569 661 555 274 295 284 15 3 8 53 9 32 98 61 52 227 147 228 204 180 162
0 0 0 211 300 420 534 854 1293 845 503 805 582 306 99 30 57 59 32 51 3 16 19 58 56 60 94 54 181 204 172 192
0 0 0 65 400 585 605 827 1180 853 1068 581 677 494 137 281 181 139 31 7 21 15 3 25 36 51 33 13 129 167 137 181
0 0 0 11 318 542 501 762 854 863 1040 690 595 396 157 152 175 148 61 93 63 6 19 26 36 44 49 22 16 68 162 125
63 3 0 0 260 408 147 449 568 789 957 719 455 154 132 104 214 210 207 79 29 9 38 44 28 7 38 33 31 24 74 203
69 54 0 6 411 76 46 330 673 442 505 435 272 115 42 92 97 163 142 48 20 17 22 22 43 28 4 33 20 17 153 200
189 153 103 99 280 4 231 759 422 517 506 387 244 110 4 6 14 65 51 1 3 14 1 10 13 5 1 8 41 13 99 191
304 222 325 166 3 6 57 500 230 485 450 371 221 21 10 18 70 42 13 1 2 2 9 6 7 14 3 6 33 9 27 132
438 277 238 139 3 2 2 335 200 434 408 343 192 10 15 15 68 30 3 0 8 6 2 10 13 15 8 15 3 17 17 49
194 149 17 6 0 0 3 168 144 371 384 295 21 3 19 22 59 6 1 2 0 5 1 11 10 25 7 12 10 12 51 61
60 5 0 0 1 36 2 37 52 336 390 266 9 8 16 21 34 19 4 2 12 0 0 1 34 36 44 42 29 10 4 1
2 0 0 3 2 72 294 60 431 290 292 13 0 13 25 19 18 1 2 0 2 0 0 3 9 55 64 47 0 0 0 0
0 0 0 1 120 31 77 139 129 248 23 1 2 11 14 17 31 18 2 1 7 2 9 6 26 27 1 0 0 0 2 0
0 0 0 12 14 256 119 195 190 132 7 3 14 18 30 17 35 20 1 1 6 8 0 11 6 26 5 0 0 0 2 1
1 0 0 5 48 324 227 263 114 21 0 18 23 33 28 9 22 25 25 0 4 12 2 10 16 3 19 2 2 3 4 3
0 0 0 0 22 115 364 223 65 1 0 23 27 24 17 18 21 10 3 23 32 33 1 6 0 4 12 1 2 3 0 0
0 0 0 0 0 0 55 50 12 25 23 20 6 2 12 48 16 11 11 0 11 1 1 1 2 2 0 5 2 0 0 0
0 0 0 0 0 0 0 0 0 0 24 35 41 17 14 3 8 9 19 20 7 1 1 1 1 1 2 5 0 0 0 4

GFSFLT1_con_mucape_117.txt.gz
CAPE
0 0 0 0 0 0 0 932 2028 2855 2438 2016 1831 1536 1103 1122 925 906 955 983 743 702 976 920 969 640 278 26 35 30 19 78
0 0 0 0 0 41 110 466 1699 2304 2060 1987 1269 1049 1136 1148 677 579 699 874 537 645 566 549 149 112 83 68 58 55 55 227
0 0 0 0 0 256 316 664 1310 1935 1472 1309 1212 1314 1128 1059 678 581 368 295 366 278 384 207 24 68 72 31 48 22 42 234
0 0 0 0 30 425 488 736 1059 1665 1200 1246 1318 1126 862 652 328 399 444 146 58 20 16 61 32 42 30 38 49 25 0 109
0 0 0 0 4 330 637 738 975 1498 1006 1246 1473 1045 670 660 558 522 343 281 95 12 2 7 9 19 28 32 34 66 69 125
0 0 0 0 2 406 889 916 1049 1343 1383 1382 1457 1380 940 640 464 538 369 293 173 44 5 17 38 9 3 34 5 64 59 145
2 29 176 3 541 869 950 901 1162 1306 1417 1559 1431 1324 916 636 502 460 506 405 405 122 44 3 2 4 16 21 23 47 57 84
164 228 327 61 467 777 193 454 877 993 1313 1526 1318 1107 765 590 510 406 411 388 230 166 38 7 12 5 3 7 30 54 30 23
417 546 651 503 550 501 52 350 746 678 1064 1343 976 815 614 372 255 191 142 273 100 15 21 10 25 1 8 40 30 45 47 8
658 693 605 455 154 7 3 100 733 935 936 876 653 544 326 182 103 239 261 101 16 21 3 13 6 3 6 25 6 42 40 31
523 432 225 51 24 1 48 131 462 645 380 885 499 376 279 122 185 237 118 8 2 0 8 1 10 0 2 7 15 16 25 19
280 10 2 0 3 0 0 70 376 555 494 739 651 324 149 65 244 177 37 3 1 0 0 0 1 9 8 2 3 10 7 30
67 3 0 0 0 0 0 55 157 218 188 366 406 343 14 96 110 108 17 0 2 0 0 0 0 3 10 15 11 5 13 34
20 2 0 0 1 15 19 82 170 69 612 406 362 73 19 70 29 18 7 1 2 0 0 0 0 0 3 2 13 12 16 8
13 1 0 0 1 20 198 138 104 228 302 424 184 1 13 14 135 29 21 0 0 1 0 4 0 0 5 35 4 0 1 64
6 0 0 0 0 1 220 118 113 105 287 178 44 31 28 50 70 29 33 11 2 0 0 2 0 0 0 25 0 2 0 1
0 0 0 0 0 0 96 202 152 159 222 64 27 33 46 37 42 97 35 34 25 2 2 0 10 8 8 2 0 0 0 0
0 0 0 0 0 0 5 57 152 156 85 22 8 30 23 19 43 33 35 45 45 42 10 1 0 1 2 1 5 4 1 2
0 0 0 0 0 0 0 0 21 78 58 8 13 18 8 19 22 37 34 45 43 29 45 23 2 4 7 5 5 5 4 2

GFSFLT1_con_mucape_123.txt.gz
CAPE
0 0 0 0 0 0 1642 1847 2092 2451 2343 2308 2024 1685 1659 1568 1475 1195 1474 1266 890 653 504 356 233 182 116 44 10 3 8 26
0 0 0 0 0 0 1392 1845 2039 2452 2359 2310 2169 1998 1409 1478 1517 1240 1215 1459 1225 868 600 464 346 214 44 11 18 15 7 4
0 0 0 0 0 0 255 1580 2088 2243 2337 2187 2108 1963 1575 1359 1494 1262 969 1280 1243 909 578 483 350 186 104 65 21 26 14 8
0 0 0 0 0 1 409 1148 1915 2094 2318 2288 2094 1932 1679 1533 1363 1170 1444 1173 1282 807 623 415 320 242 153 78 32 20 20 1
0 0 6 0 0 7 114 888 1737 1978 2184 2299 2134 1873 1634 1576 1087 1151 1525 1325 1188 1046 556 438 307 260 120 68 60 42 20 13
0 0 0 2 0 49 28 49 1312 1671 2187 2217 2117 1842 1633 1466 896 1065 904 992 959 854 539 417 231 194 84 68 202 57 49 40
0 0 5 150 3 131 153 186 425 1539 1947 2125 2056 1888 1669 936 1069 955 935 954 823 722 215 498 547 112 68 99 48 34 47 27
215 401 358 995 773 584 630 692 1308 1462 1532 1755 1920 1832 1527 998 684 615 892 695 393 615 299 38 330 289 45 139 102 43 28 32
680 669 908 868 867 908 915 856 748 1271 1295 1446 1556 1497 1186 1041 978 743 661 566 254 148 208 32 20 83 190 99 85 12 4 23
803 665 557 648 624 491 412 444 391 1005 1471 1435 1230 1167 1099 1352 1289 905 645 547 312 148 112 63 36 14 29 59 11 10 13 4
612 365 195 117 176 116 56 0 0 167 1248 1406 1139 1266 1288 1015 1024 753 848 633 490 252 295 207 121 151 40 12 19 31 38 35
191 59 28 37 7 0 0 0 2 7 721 665 954 1098 1135 1095 959 901 820 512 272 228 54 80 9 11 21 19 2 0 8 17
84 2 3 4 0 1 2 3 1 1 6 27 205 922 1135 971 982 927 718 247 217 133 139 16 12 27 5 1 0 11 5 11
60 13 3 1 0 1 1 1 4 2 32 30 127 503 989 889 778 507 578 408 235 1 11 0 0 0 0 0 1 3 10 8
0 0 0 0 0 0 0 1 3 3 12 39 395 246 568 494 523 699 404 326 99 1 2 1 0 0 0 0 0 5 8 3
0 0 0 0 0 0 0 0 8 11 41 88 47 238 387 433 512 516 428 208 1 2 4 12 0 0 0 0 5 2 0 8
0 0 0 0 0 0 0 0 0 11 34 15 21 123 78 151 281 175 376 107 1 0 6 4 5 0 0 6 0 1 0 40
0 0 0 0 0 0 0 0 0 0 4 19 26 12 15 183 167 481 267 58 6 1 3 1 3 0 4 7 4 1 1 3
2 3 0 0 0 0 0 0 0 0 0 2 1 14 13 22 44 63 66 37 13 5 5 5 7 1 8 17 8 10 7 0

GFSFLT1_con_mucape_126.txt.gz
CAPE
0 0 0 0 0 366 1494 1862 2109 2267 2223 2085 2037 1837 1839 1747 1755 1799 1590 1326 1176 1010 756 530 283 155 60 32 12 4 22 30
0 0 0 0 0 0 1135 1617 1990 2256 2250 2190 2068 1950 1725 1755 1747 1806 1705 1459 1294 1043 762 609 308 291 87 49 45 29 2 27
0 0 0 0 0 0 525 1456 1766 2252 2238 2190 2021 2014 1776 1888 1807 1754 1666 1542 1286 1066 748 531 311 219 136 120 91 27 13 15
0 0 0 0 0 0 0 1267 1743 2249 2234 2095 2026 1965 1784 1791 1662 1624 1483 1304 1397 1199 1391 895 527 427 283 214 182 54 15 15
0 0 0 0 0 0 0 1104 1744 2230 2194 2051 2076 1883 1860 1849 1681 1537 1440 1018 1541 1500 1093 1257 928 450 686 325 187 89 43 61
0 0 0 0 0 0 218 1260 1828 2148 2251 2095 2069 1859 1673 1612 1504 1434 1290 907 1534 1279 1447 1161 646 515 351 304 164 182 118 82
0 0 0 0 0 0 235 1273 1818 2085 2276 2164 1995 1873 1684 1646 1436 1551 1432 1113 1180 1194 1149 1061 982 409 346 320 221 285 154 309
0 9 188 191 127 159 306 931 1678 1996 2140 2192 2052 1944 1856 1651 1499 1509 1083 737 1175 1343 972 762 760 578 550 363 255 81 122 126
368 492 610 692 619 566 774 1105 1325 1725 2011 2088 2141 2053 1902 1736 1650 1351 1091 512 820 816 1033 792 599 637 341 196 353 72 66 45
953 1080 1066 976 939 854 750 846 1183 1507 1672 1994 2003 1909 1811 1636 1793 1569 900 614 605 651 710 633 372 277 196 205 66 39 110 31
939 922 912 839 838 788 753 713 716 913 1180 1359 1394 1391 1259 1503 1362 1090 1041 941 681 747 415 136 39 13 19 41 198 38 24 104
305 184 120 140 117 196 103 112 71 73 661 871 1164 1240 1258 1191 1187 1420 1299 883 731 794 605 207 66 67 101 69 25 12 25 39
117 38 19 0 1 13 36 64 0 0 24 673 838 964 1039 888 1013 1001 781 1089 640 627 417 464 107 286 119 42 42 39 28 17
47 1 1 0 0 0 3 4 5 7 9 7 268 805 641 499 587 757 831 713 648 852 323 278 98 70 157 57 12 12 14 28
2 1 2 3 0 0 1 0 5 3 23 19 29 130 272 437 132 445 497 516 699 823 221 235 10 0 1 2 0 0 4 9
0 0 1 0 0 0 0 2 0 1 20 32 40 59 36 299 359 354 354 291 301 716 122 109 5 6 4 0 0 0 0 15
0 0 0 0 0 0 0 0 0 1 18 19 17 23 107 134 114 171 129 94 281 494 379 58 3 22 0 0 0 0 0 1
0 0 0 0 0 0 0 0 0 0 0 12 31 20 15 31 19 24 66 32 80 365 64 1 17 6 0 1 0 0 10 3
0 0 2 0 0 0 0 0 0 0 0 0 1 29 23 20 27 40 33 52 57 27 20 0 8 3 0 1 2 7 13 5

GFSFLT1_con_mucape_129.txt.gz
CAPE
0 0 0 1 0 411 1556 1928 2087 2141 2030 1710 1472 1278 1051 941 886 985 1156 991 1012 876 662 368 407 373 190 37 5 1 27 51
0 0 0 0 0 1 587 1741 2021 2135 2099 1988 1820 1693 1510 1096 1135 1028 1079 1242 1170 1003 852 694 613 440 309 133 38 0 7 21
0 0 0 0 0 0 3 1051 1879 2115 2079 2048 1866 1780 1783 1551 1202 1364 1512 1452 1370 1221 1123 1004 783 524 367 207 48 1 10 26
0 0 0 0 0 0 1 402 1498 2034 2153 2136 1917 1807 1746 1757 1680 1749 1791 1833 1726 1409 1330 1171 818 618 398 241 114 35 45 20
0 0 0 0 0 0 0 111 1268 1918 2208 2041 1892 1856 1649 1540 1565 1709 1796 1910 1740 1604 1303 1147 878 619 390 344 203 175 138 199
0 0 0 0 0 0 0 5 1088 1782 2144 1995 2018 1837 1701 1568 1554 1579 1868 1910 1796 1596 1152 1536 833 926 911 524 214 150 160 246
0 0 0 0 0 0 0 0 1112 1791 2113 2022 1899 1859 1803 1644 1468 1584 1617 1802 1621 1343 977 1199 1111 990 1125 749 419 214 224 184
0 0 0 58 1 35 70 1106 1694 2088 2099 1990 1918 1908 1913 1747 1487 1484 1673 1555 1538 1078 920 1562 1127 939 1042 746 530 98 166 117
362 299 201 285 253 437 870 1504 1997 2238 2246 2061 1993 2010 1907 1768 1574 1323 1350 1468 1486 1063 1030 1333 951 848 737 788 512 277 150 166
355 318 224 360 858 1030 1093 1539 1941 2124 2335 1882 1924 1932 1824 1610 1486 1541 1445 1479 1570 973 723 860 742 923 732 828 659 177 85 93
547 603 566 570 726 926 1341 1398 1565 1553 1432 1631 1875 2003 1885 1785 1778 1674 1612 1594 1301 589 562 904 732 701 517 496 305 164 139 146
159 319 478 520 594 637 717 800 1058 1018 1024 1263 1343 1456 1669 1713 1619 1609 1649 1603 1160 747 626 499 584 647 49 74 56 46 45 61
1 11 16 28 40 42 118 145 154 181 565 661 859 1034 951 1122 1152 1058 1315 1152 1249 1041 600 473 368 296 79 28 39 119 38 30
2 0 0 3 0 0 6 9 27 125 63 156 333 686 693 813 990 929 1111 1200 1245 788 612 346 459 444 338 113 135 149 87 34
0 1 0 8 1 0 0 2 19 63 69 53 63 135 239 415 487 500 514 657 672 661 503 479 331 135 146 40 41 103 64 13
3 6 1 2 0 0 11 29 54 61 58 61 92 67 105 116 190 238 399 462 310 483 361 460 394 96 73 31 1 7 3 0
0 0 0 0 0 0 0 0 0 54 41 73 41 66 51 65 73 141 119 106 76 200 138 93 39 351 25 1 0 0 1 0
0 0 0 0 0 0 0 0 0 0 0 12 17 18 39 71 62 51 79 54 67 49 75 26 98 51 7 0 0 1 4 0
0 0 0 1 1 0 0 0 0 0 0 0 0 4 11 27 24 19 35 43 38 55 22 12 15 8 0 0 0 11 8 0

GFSFLT1_con_mucape_135.txt.gz
CAPE
0 0 0 0 0 0 0 0 1072 2048 1863 1606 1477 1423 1333 1225 1018 767 889 901 700 380 438 171 66 5 0 13 193 218 285 213
0 0 0 0 0 0 0 0 170 1902 1882 1410 1234 1177 1295 1295 1049 956 1115 1190 673 564 427 182 157 224 89 146 231 197 19 67
0 0 0 0 0 0 0 0 0 1580 1800 1829 1721 1634 1371 1328 1223 868 1016 1228 892 593 640 394 258 147 109 112 178 73 60 9
0 0 0 0 0 0 0 0 0 1222 1873 1923 1990 1829 1786 1472 1233 903 898 1151 1058 1059 542 486 356 366 218 160 351 244 97 9
9 17 40 0 0 0 0 0 0 711 2303 2263 1982 1856 1819 1632 1540 1328 1122 1033 949 888 896 545 479 479 475 266 342 329 211 54
3 192 36 0 0 0 0 0 0 26 2265 2572 2382 2467 2389 2279 1782 1566 1183 1107 1283 1238 1105 527 540 591 596 433 440 407 310 199
117 73 285 70 0 0 0 0 0 0 2117 2731 2725 2669 2527 2409 2016 1716 1248 1401 1189 1248 1357 590 655 775 763 732 706 612 451 361
10 69 241 323 364 0 0 0 0 0 1697 2649 2870 2804 2745 2462 2139 1954 1388 1427 1082 1284 1522 953 920 1095 1117 1013 728 408 527 622
31 74 126 217 371 387 0 0 0 44 1515 2690 2966 2949 2604 2459 2278 2217 1702 1596 1342 1215 1697 1194 1252 1517 1420 937 995 706 476 467
8 145 189 233 528 494 931 650 75 322 1567 2789 2937 2882 2414 2403 2354 2375 1744 1474 1201 1291 1548 1776 1522 1360 1326 953 608 654 498 331
1 133 256 326 410 583 708 1036 1206 1224 1902 2672 2812 2644 2198 2077 2128 2111 1848 1555 1270 1664 2025 1901 1460 1375 1438 863 458 580 640 595
0 112 230 370 409 600 839 1095 1325 1546 1789 2365 2254 1910 1806 1791 1778 1744 1724 1364 1192 1375 849 1292 1430 1408 1131 726 604 620 683 614
0 0 183 402 419 589 397 365 483 492 552 934 934 919 943 1134 1163 1026 1045 1100 875 530 631 1056 1383 1287 900 729 640 602 522 593
0 0 21 153 267 342 283 276 183 301 416 460 398 174 296 253 497 671 574 468 381 316 438 492 883 877 592 548 656 436 329 349
0 0 0 0 86 177 105 100 30 15 23 124 129 4 12 30 78 190 281 282 208 249 362 373 474 555 448 393 318 349 227 88
0 0 0 0 2 3 6 8 4 0 0 13 64 94 68 59 18 67 69 154 275 303 313 389 395 397 340 327 69 18 9 0
1 0 0 0 0 0 3 0 22 55 112 87 40 53 107 137 102 145 94 79 101 169 160 250 155 301 288 158 84 79 17 22
0 0 0 0 0 0 0 1 16 59 88 96 37 8 3 25 49 61 87 104 107 141 193 258 247 243 155 57 56 36 10 3
0 0 0 0 0 0 0 0 0 0 0 0 0 25 17 33 40 29 45 116 106 139 63 113 127 105 81 44 31 8 1 0

GFSFLT1_con_mucape_138.txt.gz
CAPE
0 0 0 0 0 0 0 0 0 0 552 2158 1965 1895 1904 1840 1839 1734 1657 1536 1844 1636 1132 1152 1095 873 756 550 392 753 734 630
2 3 3 0 0 0 0 0 0 0 1 1139 2045 2328 2229 2133 1904 1724 1808 1455 1905 1706 1253 1312 831 800 659 482 441 745 776 506
10 13 5 11 8 17 0 0 0 0 0 545 1836 2336 2706 2225 2265 1964 1899 1616 1497 1885 1678 1436 612 679 732 559 832 759 610 705
19 16 30 33 32 203 103 0 0 0 0 110 1490 1798 2216 2194 2397 2014 2152 1616 1228 1567 1812 1635 860 894 581 514 1024 825 542 302
0 0 0 0 0 46 295 22 0 0 0 65 1387 1541 1530 1793 2030 2214 2199 1719 1460 1233 1592 1746 1499 1133 987 631 1123 989 811 286
0 0 0 0 1 4 16 0 0 0 0 1 1444 1688 1455 1888 1849 2272 2365 2024 1398 1105 1310 1418 1383 1082 1469 1220 1041 1489 1295 795
0 0 0 0 5 27 25 66 0 0 0 26 1745 2255 1860 1781 2305 2546 2457 2120 1458 1208 1267 1132 1323 1145 1157 877 891 1385 1289 1081
0 0 0 17 125 110 143 226 0 0 0 15 1909 2355 2368 2593 2367 2541 2422 2040 1449 1289 1377 1082 1139 1205 1120 956 726 814 1426 1295
0 0 0 45 97 181 336 347 0 0 0 3 1576 2384 2246 2356 2457 2508 2611 2337 1747 1513 1242 1198 1087 1151 1071 909 657 887 1638 1855
0 0 70 97 180 241 324 497 453 7 0 21 1271 2494 2320 2330 2413 2699 2642 2547 2049 1795 1368 1568 1122 1135 1065 1046 891 801 1404 1755
0 0 0 162 124 427 539 533 659 782 988 957 1706 2288 2449 2490 2630 2731 2909 2793 2268 1847 1385 1515 1043 1301 1299 1265 1025 1079 1151 1088
0 0 0 134 120 541 614 767 892 1234 1441 1916 1829 2036 2429 2604 2798 2713 2590 2450 2152 1848 1563 1570 1348 1601 1282 1207 1118 1282 857 751
0 0 0 21 160 422 518 658 823 1144 1482 1601 1792 1987 2004 2046 2266 2524 2462 2362 1803 1599 1520 1208 1134 1225 912 1164 1235 851 694 449
0 0 0 0 122 229 407 550 511 583 1026 1022 1196 1581 1690 1515 1589 1527 1455 1624 1499 1334 1349 1483 1554 1072 768 752 996 592 500 468
0 0 0 0 1 137 274 300 365 315 275 610 635 644 547 522 653 869 837 990 1054 953 977 847 541 425 407 666 650 460 449 396
0 0 0 0 0 14 116 122 128 43 36 115 418 197 227 221 136 184 229 277 474 807 725 470 227 191 288 419 242 495 290 234
0 0 0 0 0 0 1 15 30 4 0 0 0 6 20 65 49 34 40 74 68 101 123 72 64 88 128 142 154 156 217 114
0 0 0 0 0 0 0 0 0 0 0 0 9 0 3 2 2 14 10 13 58 55 27 55 70 61 61 62 185 87 71 52
0 0 0 0 0 0 0 0 0 0 0 29 7 40 32 33 49 75 123 81 108 106 62 59 90 106 76 92 14 70 23 37

GFSFLT1_con_mucape_141.txt.gz
CAPE
0 3 4 8 0 0 0 1 7 2 0 0 493 2578 2869 2648 2564 2793 3005 2397 2916 2858 2080 2029 1810 1595 1431 1436 1418 1348 1140 794
19 0 0 0 0 2 0 0 0 97 0 0 0 1561 2341 2675 2729 2673 3023 2347 2857 2939 2425 2280 2008 1822 1731 1862 1067 1136 1313 956
9 1 0 0 0 0 0 0 0 0 40 0 0 0 2208 2404 2755 2645 2854 2733 2626 2876 2718 2330 2192 1910 1972 1819 1427 1185 1388 796
0 0 0 0 0 0 0 0 0 0 102 9 0 0 694 2208 2283 2533 2824 2967 2442 2914 2841 2574 2353 2025 1906 1816 1564 1460 1260 1221
0 0 0 0 0 0 0 0 0 0 64 357 11 0 233 1727 2230 2170 2854 2918 2486 2564 2779 2764 2273 1923 1982 1798 1629 1839 1553 1167
0 0 0 0 0 0 0 0 0 0 14 573 21 47 338 1574 2163 1723 2384 2816 2644 2187 2758 2770 2524 2014 2110 1864 1634 2139 1748 1098
0 0 0 0 0 0 0 0 0 3 0 620 322 58 552 2109 2035 1854 1551 2373 2513 1860 1920 2814 2905 2220 2258 2043 1688 2166 1843 1645
0 0 0 0 0 1 0 0 0 11 44 564 183 172 24 1968 2110 2156 1116 1756 2441 1830 1512 2380 2790 2582 2289 2418 1908 2085 2087 1792
0 0 0 0 0 6 16 6 28 0 119 233 224 202 56 1914 1908 1744 874 196 1310 2083 1728 1658 2485 2633 2249 2415 2093 1941 2192 2256
0 0 0 0 0 36 51 57 69 13 54 582 245 334 224 1851 2206 2370 895 80 4 1825 1761 1597 1581 2160 2153 1996 1752 1699 2023 2226
0 0 0 0 0 44 84 159 161 199 227 263 625 282 956 2344 2027 1464 1246 1181 1271 1794 1721 1597 2007 1310 1642 1527 1305 1234 1331 2162
0 0 0 0 0 27 130 169 321 394 413 571 667 429 764 1778 2044 1776 1266 1567 1835 2060 2107 1738 1856 1283 1383 1558 1246 1240 1206 1797
0 0 0 0 0 45 107 184 133 178 383 767 792 935 583 724 822 1164 1757 1905 2341 2262 2293 1678 1387 1533 1517 1318 1195 953 1630 1781
0 0 0 0 0 5 119 216 151 214 294 778 951 1217 641 1037 969 872 1240 1734 1735 1783 2049 1843 1140 1621 1691 1578 1220 1440 1436 1120
0 0 0 0 0 0 38 184 207 202 297 708 581 982 992 1048 1034 1055 1051 1059 1214 1434 1416 1392 1393 1381 1360 1405 1523 1371 1304 1052
0 0 0 0 0 0 2 18 109 129 193 187 347 757 486 397 523 866 871 744 819 977 1018 1156 1235 1201 1333 1480 1476 1361 1209 601
0 0 0 0 0 0 0 0 2 12 50 45 91 123 179 185 227 297 421 420 566 481 578 629 958 1104 1124 581 716 941 689 342
0 0 0 0 0 0 0 0 0 0 2 0 8 0 0 9 24 13 113 126 39 114 215 309 224 205 317 176 275 493 340 217
0 0 0 0 0 0 0 0 0 0 0 0 0 0 0 0 0 0 1 11 5 18 112 59 71 45 37 30 71 168 195 188